Date,TemperatureHighF,TemperatureAvgF,TemperatureLowF,DewpointHighF,DewpointAvgF,DewpointLowF,HumidityHigh,HumidityAvg,HumidityLow,PressureMaxIn,PressureMinIn,WindSpeedMaxMPH,WindSpeedAvgMPH,GustSpeedMaxMPH,PrecipitationSumIn
2014-1-1,33,27,20,23,18,12,76,67,59,30.37,30.22,15,2,15,0.00
2014-1-2,30,23,14,23,20,12,93,85,72,30.22,29.66,19,6,19,0.05
2014-1-3,15,11,6,12,7,2,92,86,78,30.44,29.63,31,6,31,0.01
2014-1-4,25,14,4,20,10,1,97,84,72,30.50,30.26,13,2,13,0.04
2014-1-5,35,23,11,35,22,9,98,94,88,30.28,29.71,5,0,5,0.02
2014-1-6,52,38,17,52,34,4,100,86,56,29.72,29.33,30,4,30,0.01
2014-1-7,17,8,3,4,-5,-9,61,54,47,30.35,29.70,29,7,29,0.05
2014-1-8,22,14,7,9,3,-3,70,61,52,30.52,30.35,14,3,14,0.00
2014-1-9,34,24,16,18,14,9,83,66,48,30.61,30.45,14,1,14,0.00
2014-1-10,34,30,23,33,26,18,97,88,77,30.55,30.17,4,0,4,0.00
2014-1-11,57,46,34,57,45,33,100,99,97,30.17,29.27,19,1,19,0.00
2014-1-12,53,44,35,52,34,29,97,70,59,30.02,29.34,32,6,32,0.00
2014-1-13,51,40,28,43,35,26,95,82,70,30.11,29.84,12,0,12,0.00
2014-1-14,46,43,38,46,42,36,100,95,86,29.85,29.62,9,0,9,0.00
2014-1-15,47,38,30,43,36,29,99,95,82,29.96,29.81,5,0,7,0.00
2014-1-16,41,38,33,39,34,30,97,86,77,29.91,29.80,13,1,13,0.00
2014-1-17,45,35,26,33,30,25,96,83,62,29.95,29.83,12,0,12,0.00
2014-1-18,38,33,27,34,28,21,95,82,71,29.83,29.62,20,3,21,0.00
2014-1-19,35,29,24,27,22,17,78,73,66,29.80,29.61,22,4,22,0.00
2014-1-20,43,37,29,34,28,18,80,69,60,29.87,29.53,25,4,25,0.00
2014-1-21,29,18,10,18,12,6,91,79,56,29.98,29.81,20,5,20,0.00
2014-1-22,17,10,4,7,1,-2,89,67,52,29.97,29.77,24,6,24,0.00
2014-1-23,22,12,4,9,3,-3,76,66,54,30.26,29.96,21,3,21,0.00
2014-1-24,22,14,9,6,3,0,71,60,45,30.35,30.03,23,5,23,0.00
2014-1-25,25,21,17,22,15,6,91,76,60,30.03,29.40,19,4,19,0.00
2014-1-26,25,20,14,19,10,3,100,66,49,29.87,29.42,21,4,21,0.00
2014-1-27,42,28,19,32,17,4,84,65,40,30.05,29.57,30,4,30,0.00
2014-1-28,19,14,11,4,-11,-100,61,42,38,30.34,30.05,13,-104,21,0.00
2014-1-29,26,10,12,12,-45,-100,92,29,39,30.26,30.05,20,-473,20,0.00
2014-1-30,30,9,12,13,-59,-100,68,19,46,30.42,30.16,11,-621,11,0.00
2014-1-31,-200,0,200,-100,-100,-100,0,0,100,30.19,30.04,0,-999,0,0.00
2014-2-1,-200,0,200,-100,-100,-100,0,0,100,30.29,30.18,0,-999,0,0.00
2014-2-2,28,28,28,11,11,11,1,1,1,30.05,29.87,0,0,0,0.00
2014-2-3,28,28,28,11,11,11,1,1,1,30.27,30.03,0,0,0,0.00
2014-2-4,37,20,28,29,-22,-100,82,13,1,30.43,30.20,5,-324,5,0.01
2014-2-5,-200,0,200,-100,-100,-100,0,0,100,30.22,29.59,0,-999,0,0.00
2014-2-6,31,8,19,22,-61,-100,84,25,66,30.26,29.93,16,-673,16,0.00
2014-2-7,35,10,22,22,-58,-100,79,23,55,30.29,30.15,10,-642,13,0.00
2014-2-8,31,9,18,13,-62,-100,67,17,43,30.30,30.10,11,-654,11,0.00
2014-2-9,30,8,17,17,-63,-100,70,20,55,30.16,29.95,9,-677,9,0.00
2014-2-10,29,9,19,16,-59,-100,81,23,55,30.24,29.95,20,-637,20,0.00
2014-2-11,26,8,15,11,-62,-100,70,21,50,30.44,30.24,15,-648,16,0.00
2014-2-12,26,8,9,11,-60,-100,83,21,48,30.55,30.26,11,-629,11,0.00
2014-2-13,32,1,31,31,-94,-100,98,4,98,30.26,28.96,23,-954,23,0.00
2014-2-14,40,19,31,38,-33,-100,99,43,67,29.73,28.99,33,-487,33,0.00
2014-2-15,37,11,33,31,-60,-100,94,25,70,29.74,29.55,19,-684,19,0.00
2014-2-16,30,9,21,16,-59,-100,70,22,56,30.07,29.71,21,-639,21,0.00
2014-2-17,34,12,17,12,-52,-100,58,20,36,30.34,30.07,19,-550,19,0.00
2014-2-18,40,24,27,34,-15,-100,94,28,1,30.28,29.90,21,-291,21,0.00
2014-2-19,42,9,24,40,-68,-100,96,22,82,30.06,29.64,7,-757,7,0.00
2014-2-20,50,16,32,35,-52,-100,86,23,48,30.21,29.93,7,-639,9,0.00
2014-2-21,40,0,40,39,-98,-100,99,1,99,30.00,29.59,5,-989,5,0.00
2014-2-22,55,19,29,38,-47,-100,99,24,40,30.00,29.87,28,-596,28,0.00
2014-2-23,55,28,30,36,-26,-100,94,30,1,29.98,29.79,11,-443,11,0.00
2014-2-24,38,14,32,19,-53,-100,58,20,44,30.04,29.75,29,-594,29,0.00
2014-2-25,33,9,24,21,-63,-100,70,19,53,30.04,29.88,24,-683,24,0.00
2014-2-26,31,7,26,24,-70,-100,89,17,49,29.93,29.77,23,-742,23,0.00
2014-2-27,31,10,10,16,-57,-100,84,22,44,30.06,29.57,31,-616,31,0.00
2014-2-28,25,6,8,5,-63,-100,58,18,38,30.39,30.07,16,-629,16,0.00
2014-3-1,38,10,11,21,-58,-100,84,21,46,30.39,30.09,13,-637,13,0.00
2014-3-2,40,20,37,29,-34,-100,67,13,1,30.10,29.94,13,-460,13,0.00
2014-3-3,38,21,19,27,-18,-100,55,16,1,30.30,29.98,18,-305,18,0.00
2014-3-4,30,8,10,10,-59,-100,65,19,39,30.40,30.20,10,-611,10,0.00
2014-3-5,37,12,27,18,-60,-100,60,16,42,30.42,30.16,11,-647,13,0.00
2014-3-6,30,9,14,10,-58,-100,63,19,41,30.60,30.42,13,-603,15,0.00
2014-3-7,38,11,27,29,-59,-100,77,23,67,30.45,29.88,11,-674,11,0.00
2014-3-8,57,31,32,38,-13,-100,92,39,45,29.88,29.72,20,-351,20,0.00
2014-3-9,44,39,35,32,24,17,76,54,39,29.98,29.85,15,4,23,0.00
2014-3-10,52,43,36,36,30,19,83,61,48,29.90,29.56,14,2,14,0.00
2014-3-11,66,52,39,43,38,34,81,60,38,29.65,29.50,19,2,19,0.00
2014-3-12,53,48,33,48,41,29,96,79,67,29.63,28.97,21,2,27,0.07
2014-3-13,33,23,17,28,9,4,82,56,42,30.05,29.13,37,12,37,0.00
2014-3-14,47,32,17,30,17,4,72,54,38,30.17,29.86,19,3,19,0.00
2014-3-15,58,48,39,39,32,28,77,55,39,29.96,29.70,35,5,35,0.00
2014-3-16,42,33,29,28,16,11,61,48,40,30.16,29.95,25,6,25,0.00
2014-3-17,33,27,21,13,8,3,54,45,34,30.11,30.00,15,4,18,0.00
2014-3-18,42,32,23,23,12,5,70,44,22,30.25,30.08,14,2,14,0.00
2014-3-19,42,35,28,38,31,23,97,86,71,30.28,29.79,20,2,20,0.24
2014-3-20,55,45,39,45,36,28,98,73,44,29.85,29.68,22,5,30,0.06
2014-3-21,51,43,35,28,27,25,68,53,40,30.01,29.85,27,6,27,0.00
2014-3-22,64,46,31,42,33,25,81,61,37,30.02,29.70,27,4,27,0.00
2014-3-23,42,37,27,29,22,11,68,54,38,30.09,29.93,23,5,23,0.00
2014-3-24,36,27,20,13,11,8,64,50,37,30.20,30.06,19,5,24,0.00
2014-3-25,39,31,20,22,17,11,79,59,39,30.13,29.82,18,1,18,0.00
2014-3-26,35,31,24,22,15,7,66,51,38,30.19,29.70,40,10,40,0.00
2014-3-27,45,33,20,25,15,10,67,49,31,30.37,30.19,19,3,19,0.00
2014-3-28,53,44,36,51,39,23,97,83,54,30.22,29.92,10,0,10,0.04
2014-3-29,51,46,42,50,45,40,98,93,80,30.15,29.65,14,2,14,0.44
2014-3-30,47,44,41,46,43,38,99,95,88,29.65,29.45,23,7,27,0.02
2014-3-31,55,44,37,41,37,31,95,76,54,30.04,29.64,24,6,24,0.00
2014-4-1,62,47,34,42,35,29,82,65,45,30.09,29.91,10,2,13,0.00
2014-4-2,56,46,37,47,40,35,92,82,69,30.10,29.99,6,0,6,0.00
2014-4-3,68,53,42,45,35,27,95,57,24,30.09,29.94,15,2,15,0.00
2014-4-4,49,42,38,45,40,37,97,91,80,30.03,29.71,18,3,18,0.00
2014-4-5,55,46,39,45,36,27,98,72,48,30.03,29.68,32,6,32,0.00
2014-4-6,63,47,34,35,29,26,73,52,26,30.16,30.03,19,2,19,0.00
2014-4-7,53,44,37,45,38,26,98,79,35,30.17,29.67,14,2,14,0.00
2014-4-8,66,53,45,60,46,38,100,80,52,29.67,29.34,32,4,32,0.00
2014-4-9,61,50,39,100,38,22,87,57,37,29.99,29.57,22,5,30,0.00
2014-4-10,63,51,35,43,33,22,72,52,39,30.16,29.97,20,3,20,0.00
2014-4-11,76,62,53,55,47,38,87,60,44,29.98,29.87,25,3,25,0.00
2014-4-12,74,60,47,53,45,39,93,62,31,30.18,29.96,17,2,17,0.00
2014-4-13,84,64,47,62,52,37,86,64,42,30.15,29.90,26,3,26,0.00
2014-4-14,79,69,62,62,59,57,90,72,52,29.96,29.78,31,5,31,0.00
2014-4-15,66,56,34,64,54,32,99,94,81,29.89,29.46,27,4,27,0.19
2014-4-16,47,39,30,32,25,21,95,59,40,30.53,29.87,28,7,30,0.01
2014-4-17,50,41,33,36,29,22,84,62,45,30.69,30.53,17,2,17,0.00
2014-4-18,50,41,33,37,33,28,90,73,54,30.57,30.22,12,1,12,0.00
2014-4-19,67,54,39,42,35,31,88,54,28,30.30,30.16,23,4,23,0.00
2014-4-20,59,51,42,37,33,31,67,51,38,30.45,30.28,16,3,16,0.00
2014-4-21,70,52,34,46,37,28,89,60,28,30.28,29.83,13,1,13,0.00
2014-4-22,75,58,44,58,50,42,93,76,47,29.83,29.45,13,2,16,0.00
2014-4-23,60,52,43,53,42,34,82,67,52,29.80,29.43,38,10,38,0.00
2014-4-24,62,51,41,35,27,23,71,42,24,29.98,29.79,33,8,33,0.00
2014-4-25,64,52,40,43,32,25,75,47,31,30.00,29.72,18,2,18,0.00
2014-4-26,66,53,45,53,47,43,97,82,49,29.83,29.64,19,2,19,0.50
2014-4-27,57,52,44,44,40,39,82,65,53,30.08,29.83,23,5,23,0.01
2014-4-28,66,54,40,44,40,37,90,61,38,30.08,29.95,19,2,19,0.00
2014-4-29,54,47,42,43,42,40,94,82,66,30.39,30.07,22,3,22,0.05
2014-4-30,48,44,41,48,43,39,100,97,91,30.36,29.93,16,2,16,0.54
2014-5-1,80,63,48,66,56,48,100,80,42,29.93,29.61,18,2,18,0.00
2014-5-2,69,62,54,54,47,41,93,61,42,29.80,29.65,22,3,22,0.00
2014-5-3,72,60,49,52,46,41,94,63,43,29.83,29.67,21,2,21,0.00
2014-5-4,66,57,50,52,44,33,94,65,37,29.74,29.59,33,4,33,0.00
2014-5-5,69,58,49,43,38,32,72,49,30,29.86,29.74,22,6,26,0.00
2014-5-6,70,58,48,42,38,33,63,48,33,30.03,29.83,24,2,24,0.00
2014-5-7,73,59,45,46,40,35,73,51,32,30.19,30.03,10,1,13,0.00
2014-5-8,59,55,52,57,53,46,99,93,60,30.14,30.04,9,0,9,0.00
2014-5-9,55,55,55,55,54,54,99,98,97,30.13,30.06,6,0,6,0.00
2014-7-21,55,55,55,55,55,55,99,99,99,30.09,30.09,0,0,0,0.00
2014-7-22,55,55,55,55,55,55,99,99,99,30.09,30.09,0,0,0,0.00
2014-7-23,55,55,55,55,55,55,99,99,99,30.09,30.09,0,0,0,0.00
2014-7-24,55,55,55,55,55,55,99,99,99,30.09,30.09,0,0,0,0.00
2014-7-25,55,55,55,55,55,55,99,99,99,30.09,30.09,0,0,0,0.00
2014-7-26,79,59,55,71,58,55,99,95,75,30.09,29.83,3,0,12,0.00
2014-7-27,90,78,70,76,72,68,98,82,57,29.85,29.58,5,1,14,0.06
2014-7-28,84,75,67,76,69,61,99,83,59,29.64,29.45,24,3,24,0.23
2014-7-29,77,69,62,61,59,57,86,71,53,29.92,29.63,19,2,19,0.00
2014-7-30,82,70,58,62,59,55,93,70,46,29.99,29.91,15,1,15,0.00
2014-7-31,85,72,59,69,63,57,97,75,53,30.08,29.99,18,1,18,0.03
2014-8-1,86,72,64,75,68,63,99,91,65,30.17,30.08,13,0,13,0.37
2014-8-2,76,69,64,69,67,64,100,92,78,30.14,30.04,11,0,11,0.08
2014-8-3,78,70,65,70,67,64,99,89,73,30.07,29.97,6,0,6,0.01
2014-8-4,88,78,69,71,69,67,95,76,54,30.01,29.94,11,1,11,0.00
2014-8-5,92,79,65,72,68,64,98,73,47,29.99,29.83,14,0,14,0.00
2014-8-6,84,75,68,69,66,61,92,74,53,29.87,29.77,18,2,18,0.00
2014-8-7,83,72,62,64,59,55,87,65,46,29.97,29.84,19,2,19,0.00
2014-8-8,83,72,60,64,60,55,90,67,49,30.04,29.96,14,1,14,0.00
2014-8-9,86,74,60,66,61,57,94,65,40,30.07,30.00,13,0,13,0.00
2014-8-10,89,75,60,69,63,58,95,68,45,30.09,30.01,10,0,10,0.00
2014-8-11,88,75,62,70,64,60,96,70,41,30.08,30.03,16,1,16,0.00
2014-8-12,78,73,67,72,69,65,95,87,77,30.03,29.81,18,0,18,0.01
2014-8-13,83,73,67,74,69,64,100,89,67,29.81,29.58,15,2,21,0.59
2014-8-14,79,70,61,64,58,54,84,67,50,29.83,29.72,20,3,20,0.01
2014-8-15,72,66,56,58,56,52,90,70,57,29.93,29.83,15,2,15,0.00
2014-8-16,80,69,56,60,57,54,96,68,46,29.96,29.85,19,1,19,0.01
2014-8-17,82,72,64,69,62,58,92,71,53,29.86,29.76,18,2,18,0.02
2014-8-18,81,71,60,63,60,56,90,68,50,29.87,29.76,16,2,16,0.00
2014-8-19,84,72,60,69,63,55,86,74,53,29.89,29.81,10,1,10,0.00
2014-8-20,87,75,66,71,66,62,97,76,54,29.98,29.87,13,0,13,0.00
2014-8-21,83,74,66,72,67,62,99,80,62,30.01,29.93,14,1,14,0.20
2014-8-22,76,70,66,69,66,62,99,89,76,30.01,29.94,10,0,10,0.08
2014-8-23,77,70,64,66,64,61,96,83,62,30.07,29.99,11,0,11,0.00
2014-8-24,80,71,60,67,64,58,97,79,60,30.11,30.04,18,1,18,0.00
2014-8-25,88,74,58,69,64,57,99,75,50,30.13,30.05,11,1,11,0.00
2014-8-26,90,76,63,72,67,62,97,76,51,30.12,30.00,15,0,15,0.00
2014-8-27,93,80,65,76,70,63,97,74,55,30.02,29.79,15,1,15,0.00
2014-8-28,80,74,64,73,61,53,86,65,49,30.01,29.79,24,4,24,0.00
2014-8-29,80,68,55,61,57,52,93,69,49,30.19,30.01,12,1,12,0.00
2014-8-30,82,70,55,69,63,54,98,80,58,30.22,30.08,14,0,14,0.00
2014-8-31,90,78,71,79,73,67,96,85,65,30.09,29.89,15,1,15,0.06
2014-9-1,91,82,73,78,75,73,98,81,62,29.95,29.84,15,1,15,0.00
2014-9-2,94,86,74,79,75,72,97,72,56,29.88,29.72,20,2,23,0.00
2014-9-3,87,77,68,72,65,61,86,67,44,30.06,29.75,15,2,20,0.00
2014-9-4,89,76,60,71,65,58,96,71,45,30.15,30.04,13,0,15,0.00
2014-9-5,88,78,67,78,73,65,97,84,70,30.11,29.95,19,1,19,0.00
2014-9-6,94,81,67,80,75,65,98,82,58,29.95,29.75,18,2,19,0.08
2014-9-7,81,70,62,65,61,57,96,75,50,30.14,29.89,22,1,22,0.00
2014-9-8,77,68,59,66,59,55,86,74,54,30.27,30.14,13,1,19,0.00
2014-9-9,75,66,59,65,61,55,92,83,70,30.24,30.09,13,1,13,0.00
2014-9-10,79,70,61,66,63,57,90,78,61,30.09,29.96,10,1,12,0.00
2014-9-11,82,74,67,74,69,60,94,85,71,29.97,29.75,19,2,19,0.00
2014-9-12,78,67,58,62,57,52,86,71,55,30.14,29.90,14,2,14,0.00
2014-9-13,67,61,56,62,57,51,98,88,76,30.15,30.04,11,0,13,0.15
2014-9-14,71,59,48,55,51,47,97,78,51,30.23,30.11,14,1,14,0.03
2014-9-15,74,61,49,54,51,46,92,70,49,30.20,30.02,11,1,11,0.00
2014-9-16,72,61,54,64,56,52,99,85,62,30.02,29.90,13,1,13,0.19
2014-9-17,73,61,48,55,51,47,98,74,45,30.02,29.90,12,1,12,0.01
2014-9-18,75,62,48,58,52,46,98,73,43,30.06,29.90,12,1,13,0.00
2014-9-19,66,59,51,53,50,45,89,73,57,30.32,30.06,14,1,14,0.00
2014-9-20,75,65,54,66,59,51,95,82,69,30.30,30.01,17,1,17,0.00
2014-9-21,77,70,65,72,68,64,99,93,82,30.01,29.55,11,0,11,0.00
2014-9-22,70,64,53,68,55,44,96,72,56,30.12,29.57,22,3,23,0.00
2014-9-23,74,59,44,54,48,42,94,70,47,30.36,30.12,12,0,12,0.00
2014-9-24,71,61,50,60,55,49,97,81,62,30.51,30.36,15,1,15,0.00
2014-9-25,64,60,57,61,57,55,96,90,85,30.42,30.17,13,2,13,0.12
2014-9-26,59,59,58,56,56,55,93,91,89,30.18,30.17,4,0,6,0.00
2014-9-28,87,71,55,68,62,54,99,76,49,30.13,29.95,3,0,10,0.00
2014-9-29,78,70,62,66,63,60,95,80,62,29.95,29.84,1,0,5,0.00
2014-9-30,70,66,63,66,63,60,96,88,80,29.94,29.86,4,0,11,0.00
2014-10-1,65,62,60,62,60,58,93,91,87,30.03,29.93,3,1,9,0.00
2014-10-2,69,63,59,61,59,57,96,87,75,30.10,30.03,3,1,9,0.00
2014-10-3,71,62,53,59,56,52,96,80,57,30.07,29.80,3,0,13,0.00
2014-10-4,68,62,52,67,58,42,100,88,67,29.79,29.44,14,1,16,0.12
2014-10-5,61,51,42,44,41,36,87,68,51,29.95,29.65,17,2,17,0.01
2014-10-6,70,56,40,56,49,38,99,78,51,30.02,29.95,15,1,15,0.00
2014-10-7,73,66,60,63,58,55,92,76,59,30.01,29.84,19,2,19,0.01
2014-10-8,73,66,59,63,56,45,98,73,50,29.90,29.72,24,3,24,0.00
2014-10-9,68,59,47,48,46,44,88,63,45,30.01,29.89,22,2,22,0.00
2014-10-10,62,56,46,49,46,43,90,69,55,30.09,29.99,10,0,10,0.00
2014-10-11,55,51,46,52,49,44,98,93,80,30.13,30.00,10,1,10,0.00
2014-10-12,62,51,41,47,44,40,98,80,50,30.27,30.12,11,0,11,0.00
2014-10-13,64,55,43,62,52,41,98,90,77,30.29,30.18,9,0,9,0.00
2014-10-14,76,68,60,70,65,60,100,91,77,30.18,30.05,13,1,13,0.00
2014-10-15,78,71,68,72,69,66,99,93,82,30.04,29.77,18,1,18,0.00
2014-10-16,72,67,56,69,64,55,100,91,67,29.77,29.62,17,1,17,0.01
2014-10-17,72,64,56,58,57,55,97,79,58,29.68,29.60,20,2,20,0.00
2014-10-18,69,59,53,59,53,47,98,81,58,29.67,29.50,21,2,21,0.00
2014-10-19,55,50,41,48,39,32,78,67,51,30.02,29.66,28,4,28,0.01
2014-10-20,60,48,37,45,39,32,88,72,55,30.08,29.91,17,1,17,0.00
2014-10-21,64,54,47,57,51,45,99,92,72,29.91,29.77,12,0,12,0.00
2014-10-22,56,54,50,54,52,49,99,95,86,29.90,29.69,26,5,26,0.00
2014-10-23,54,52,50,51,49,47,96,91,84,29.74,29.65,25,6,25,0.00
2014-10-24,66,55,50,54,48,44,90,78,62,29.79,29.70,22,2,22,0.00
2014-10-25,69,58,46,52,47,41,84,67,54,29.82,29.50,16,2,16,0.02
2014-10-26,61,56,50,54,45,41,89,66,53,29.78,29.49,27,4,27,0.01
2014-10-27,65,54,46,46,43,40,88,67,45,29.98,29.78,18,2,18,0.00
2014-10-28,70,55,42,58,50,40,97,83,65,30.00,29.85,10,0,10,0.00
2014-10-29,70,56,49,62,52,47,100,89,51,29.90,29.78,14,1,19,0.07
2014-10-30,56,48,41,47,42,38,98,80,59,29.98,29.89,17,2,17,0.00
2014-10-31,54,47,39,46,41,36,91,78,65,29.98,29.83,12,1,12,0.00
2014-11-1,49,45,42,46,41,38,94,85,72,29.83,29.73,27,6,27,0.17
2014-11-2,47,43,40,38,32,24,87,65,47,30.01,29.73,32,8,32,0.00
2014-11-3,62,50,39,36,32,28,70,52,30,30.09,29.98,27,3,27,0.00
2014-11-4,71,60,50,44,37,29,59,43,29,30.11,29.96,16,1,16,0.00
2014-11-5,64,56,49,49,43,37,76,62,40,30.09,29.94,16,1,16,0.00
2014-11-6,49,48,46,49,46,40,98,93,72,30.07,29.53,7,0,7,0.29
2014-11-7,52,45,38,46,39,30,98,78,64,29.90,29.51,30,5,30,0.00
2014-11-8,48,42,33,36,31,28,81,67,54,30.00,29.86,14,2,14,0.00
2014-11-9,58,48,38,41,38,35,90,70,50,29.97,29.84,15,1,15,0.00
2014-11-10,64,46,32,44,38,31,97,77,45,30.13,29.97,6,0,10,0.00
2014-11-11,65,51,38,58,48,37,98,90,76,30.10,29.86,11,0,11,0.00
2014-11-12,65,55,44,61,50,34,99,84,60,30.04,29.82,22,1,22,0.00
2014-11-13,48,41,33,36,33,30,95,73,55,30.08,29.94,8,1,9,0.10
2014-11-14,42,36,28,35,27,22,96,71,47,30.14,29.90,16,3,22,0.03
2014-11-15,42,32,26,26,24,22,91,72,47,30.33,30.14,18,2,18,0.00
2014-11-16,43,33,26,32,27,22,90,79,63,30.34,30.16,11,0,11,0.00
2014-11-17,45,41,38,45,40,29,100,94,68,29.96,29.45,9,1,19,0.17
2014-11-18,38,28,23,29,13,9,70,54,42,30.04,29.60,14,7,27,0.00
2014-11-19,34,27,20,20,13,9,63,55,41,30.23,30.01,24,4,24,0.00
2014-11-20,45,35,26,30,22,14,78,60,46,30.00,29.78,23,4,24,0.12
2014-11-21,36,29,23,17,16,14,79,57,44,30.46,29.99,25,4,25,0.00
2014-11-22,42,33,22,27,20,15,81,60,42,30.46,30.14,21,3,21,0.04
2014-11-23,57,46,41,38,32,27,76,57,43,30.16,29.93,12,1,12,0.03
2014-11-24,73,63,46,65,59,39,100,88,73,29.93,29.49,27,5,29,0.52
2014-11-25,65,55,44,61,42,35,88,64,48,30.11,29.67,17,2,19,0.01
2014-11-26,46,38,33,37,34,32,97,87,65,30.17,29.75,23,3,23,0.00
2014-11-27,36,35,34,34,33,33,95,93,90,29.96,29.80,12,1,12,0.00
2014-11-28,36,29,23,27,22,18,92,75,59,30.25,30.03,13,3,23,0.07
2014-11-29,36,30,22,30,22,18,92,73,60,30.32,30.15,4,1,9,0.00
2014-11-30,48,44,36,40,37,30,88,77,69,30.15,30.02,7,1,14,0.15
2014-12-1,66,50,40,55,43,28,89,78,64,30.42,30.01,20,3,20,0.04
2014-12-2,40,36,32,39,30,22,97,78,61,30.59,30.25,18,3,18,0.01
2014-12-3,45,42,38,44,39,30,98,92,70,30.25,29.91,24,3,24,0.01
2014-12-4,45,38,32,30,27,24,81,66,53,30.49,30.17,16,2,16,0.02
2014-12-5,39,35,30,38,30,24,97,83,72,30.55,30.29,13,2,13,0.06
2014-12-6,45,42,39,45,41,38,99,98,94,30.30,30.04,20,2,20,0.34
2014-12-7,40,36,27,38,24,9,95,63,40,30.59,30.16,30,9,30,0.08
2014-12-8,33,27,22,29,18,6,85,69,42,30.67,30.32,17,4,17,0.00
2014-12-9,43,38,33,40,36,29,97,93,85,30.31,29.62,23,7,26,0.02
2014-12-10,41,36,32,38,33,28,94,88,80,29.63,29.53,26,5,26,0.00
2014-12-11,36,33,31,28,26,24,90,77,65,29.82,29.55,19,3,19,0.36
2014-12-12,37,33,31,29,26,24,79,75,70,29.95,29.82,18,6,25,0.36
2014-12-13,42,37,34,34,30,28,84,76,63,29.95,29.84,17,6,23,0.34
2014-12-14,46,40,36,37,34,32,86,79,67,29.93,29.82,19,3,19,0.17
2014-12-15,50,38,28,38,32,27,96,82,62,30.08,29.92,12,0,12,0.08
2014-12-16,46,38,30,43,37,28,98,93,85,30.07,29.79,5,0,8,0.17
2014-12-17,53,46,41,46,41,32,99,86,70,29.85,29.74,18,3,20,0.01
2014-12-18,42,39,36,33,30,27,83,70,63,29.95,29.83,25,2,25,0.00
2014-12-19,37,34,31,31,26,24,79,72,63,30.16,29.92,0,0,0,0.00
2014-12-20,33,31,30,26,25,23,81,75,71,30.26,30.14,0,0,0,0.00
2014-12-21,36,33,30,31,29,26,92,85,80,30.30,30.23,0,0,0,0.00
2014-12-22,44,38,34,43,36,31,97,92,87,30.30,30.11,0,0,0,0.03
2014-12-23,46,45,44,46,44,43,99,98,97,30.12,30.03,0,0,0,0.23
2014-12-24,51,47,45,51,46,44,100,100,99,30.04,29.47,0,0,0,0.41
2014-12-25,61,50,42,61,42,33,100,75,56,30.07,29.43,0,0,0,0.10
2014-12-26,51,42,35,36,34,31,86,73,55,30.21,30.07,0,0,0,0.00
2014-12-27,57,44,34,42,37,31,92,78,58,30.22,30.01,0,0,0,0.00
2014-12-28,52,45,40,48,40,32,96,85,70,30.03,29.81,0,0,0,0.04
2014-12-29,43,37,30,31,26,23,92,67,51,30.23,30.03,0,0,0,0.00
2014-12-30,33,28,23,23,19,16,79,68,56,30.37,30.22,0,0,0,0.00
2014-12-31,32,27,22,19,16,14,80,66,49,30.32,30.20,0,0,0,0.00
2015-1-1,38,30,21,22,17,12,74,60,44,30.14,29.92,0,0,0,0.00
2015-1-2,42,36,30,26,24,22,77,62,50,30.42,29.96,0,0,0,0.00